Find Starlink 32443

NORAD ID: 61672 Int'l Des: 2024-193 Owner: SPXS Country: US Constellation: starlink operational
LEOCIRCULAR

現在のビュー

3D地球を読み込み中...

About Starlink 32443

Starlink 32443 (NORAD 61672) is a starlink constellation satellite (v2 mini) launched Oct 26, 2024 by SPXS of US. It operates in LEO, CIRCULAR orbit with a mass of 730.00 kg.

Starlink 32443について

説明を読み込み中...

次回通過

Passes for default location (London). Set your location on the main map for personalized predictions.

高度履歴

Loading altitude history...

軌道要素

1 61672U 24193M 26168.78674749 .00002438 00000-0 94427-4 0 9993
2 61672 53.1604 345.9501 0001291 107.1712 252.9430 15.30199373 91851
Epoch: Jun 17, 2026 • Age: 8 hours

現在のステータス

高度 480.7 km
速度 7.63 km/s
衛星直下点 52.25°N, 136.5°E
打ち上げ日 Oct 26, 2024
運用期間 1.6 years
タイプ internet

技術仕様

分類 Payload
質量 730.00 kg
乾燥質量 700.00 kg
総質量 730.00 kg
長さ 0.30 m
直径 4.10 m
スパン 29.00 m
形状 Box + pan
製造者 SPXS
バスタイプ Starlink V2M
フェーズステータス In Orbit
所有者/国 SPXS/US

Most Searched